CW1656 Weather Reports


Display with metric or nautical units.
time (UTC)temp
F
wind
direction
speed
MPH
gust
MPH
rain 1hr
in
rain 24hr
in
rain mn
in
humidity
%
barometer
mb
20260901030015 69 257 0.0 0.0 0.00 1.05 1.05 99 1017.4
20260901024508 69 257 0.0 1.0 0.00 1.05 1.05 99 1017.5
20260901023007 69 257 0.0 0.0 0.00 1.05 1.05 99 1017.4
20260901021509 69 257 0.0 1.0 0.00 1.05 1.05 99 1017.6
20260901020020 69 257 0.0 1.0 0.00 1.05 1.05 99 1017.6
20260901014506 69 257 0.0 0.0 0.00 1.05 1.05 99 1017.7
20260901013005 69 257 0.0 0.0 0.00 1.05 1.05 99 1017.7
20260901011505 69 257 0.0 0.0 0.00 1.05 1.05 99 1017.7
20260901010004 69 257 0.0 0.0 0.00 1.05 1.05 99 1017.5
20260901004506 69 257 0.0 0.0 0.00 1.05 1.05 99 1017.2
20260901003003 69 257 0.0 0.0 0.00 1.05 1.05 99 1017.2
20260901001502 69 257 0.0 0.0 0.00 1.05 1.05 99 1017.0
20260901000104 69 257 0.0 0.0 0.00 1.05 1.05 99 1017.3
20260831234610 69 257 0.0 0.0 0.00 1.05 1.05 99 1017.3
20260831233159 69 257 0.0 0.0 0.00 1.05 1.05 99 1017.4
20260831231606 69 257 0.0 0.0 0.00 1.05 1.05 99 1017.5
20260831230058 70 257 0.0 2.0 0.00 1.05 1.05 99 1017.4
20260831224556 70 175 0.0 0.0 0.00 1.05 1.05 99 1017.4
20260831223056 70 175 0.0 0.0 0.00 1.05 1.05 99 1017.6
20260831221554 70 175 0.0 0.0 0.00 1.05 1.05 99 1017.6
20260831220111 69 175 0.0 2.0 0.00 1.05 1.05 99 1017.6
20260831214554 69 175 0.0 2.0 0.00 1.05 1.05 99 1017.5
20260831213052 69 201 0.0 2.0 0.00 1.05 1.05 99 1017.6
20260831211605 69 201 0.0 0.0 0.01 1.05 1.05 99 1017.6
20260831210053 69 201 0.0 0.0 0.02 1.05 1.05 99 1017.7
20260831204549 68 201 0.0 3.0 0.02 1.05 1.05 99 1017.7
20260831203050 68 177 0.0 3.0 0.03 1.05 1.05 99 1017.6
20260831201551 68 169 0.0 2.0 0.04 1.04 1.04 99 1017.7
20260831200045 68 169 0.0 2.0 0.04 1.03 1.03 99 1018.0
20260831194617 67 169 0.0 5.0 0.09 1.03 1.03 98 1018.0
20260831193046 67 171 1.0 3.0 0.14 1.02 1.02 99 1018.1
20260831191542 67 173 1.0 5.0 0.26 1.00 1.00 98 1018.5
20260831190043 68 177 0.0 2.0 0.34 0.99 0.99 99 1018.7
20260831184602 67 177 0.0 3.0 0.32 0.94 0.94 98 1018.9
20260831183040 67 175 1.0 3.0 0.32 0.88 0.88 98 1018.8
20260831181536 67 156 0.0 2.0 0.23 0.73 0.73 98 1018.9
20260831180036 67 156 0.0 1.0 0.16 0.65 0.65 98 1019.0
20260831174533 67 156 0.0 2.0 0.14 0.62 0.62 98 1019.0
20260831173041 68 168 0.0 2.0 0.09 0.56 0.56 98 1019.0
20260831171530 68 168 0.0 3.0 0.04 0.50 0.50 98 1019.3
20260831170028 68 180 0.0 3.0 0.05 0.48 0.48 98 1019.4
20260831164532 68 175 1.0 4.0 0.07 0.50 0.48 98 1019.6
20260831163026 68 181 0.0 2.0 0.06 0.49 0.47 98 1019.6
20260831161524 67 147 0.0 2.0 0.07 0.48 0.46 98 1019.9
20260831160029 67 171 0.0 3.0 0.07 0.45 0.43 98 1020.0
20260831154523 67 146 0.0 4.0 0.07 0.45 0.41 98 1020.0
20260831153022 67 165 1.0 5.0 0.09 0.44 0.40 98 1019.9
20260831151521 67 157 0.0 2.0 0.10 0.43 0.39 98 1020.1
20260831150020 66 157 0.0 2.0 0.08 0.40 0.36 98 1020.1
20260831144528 66 157 0.0 3.0 0.10 0.38 0.34 98 1019.9
20260831143024 66 132 0.0 3.0 0.08 0.35 0.31 98 1020.1
20260831141517 66 174 2.0 7.0 0.12 0.33 0.28 98 1019.7
20260831140016 66 170 0.0 3.0 0.16 0.32 0.28 98 1019.7
20260831134516 66 157 2.0 3.0 0.19 0.28 0.24 98 1019.5
20260831133013 66 170 1.0 4.0 0.20 0.27 0.23 98 1019.7
20260831131513 65 166 1.0 4.0 0.14 0.21 0.17 98 1019.8
20260831130014 65 183 0.0 1.0 0.08 0.15 0.11 98 1020.3
20260831124510 65 183 0.0 2.0 0.03 0.09 0.05 98 1020.2
20260831123007 65 183 0.0 0.0 0.01 0.07 0.03 98 1020.3
20260831121507 65 183 0.0 2.0 0.02 0.07 0.03 98 1020.2
20260831120014 65 183 0.0 3.0 0.02 0.07 0.03 98 1020.2
20260831114506 65 183 1.0 5.0 0.01 0.06 0.02 98 1020.1
20260831113007 65 173 0.0 1.0 0.01 0.06 0.02 98 1020.1
20260831111504 65 173 0.0 3.0 0.00 0.05 0.01 98 1020.3
20260831110003 65 173 0.0 3.0 0.00 0.05 0.01 98 1020.1
20260831104506 65 169 0.0 1.0 0.00 0.05 0.01 98 1020.0
20260831103001 65 169 0.0 1.0 0.00 0.05 0.01 97 1019.9
20260831101502 65 169 0.0 1.0 0.00 0.05 0.01 97 1019.9
20260831100107 65 169 0.0 2.0 0.00 0.05 0.01 97 1019.9
20260831094559 64 169 0.0 2.0 0.01 0.05 0.01 98 1020.0
20260831093056 64 169 0.0 2.0 0.01 0.05 0.01 98 1020.2
20260831091555 64 169 0.0 0.0 0.01 0.05 0.01 98 1020.3
20260831090053 64 169 0.0 0.0 0.01 0.05 0.01 97 1020.4
20260831084603 64 169 0.0 1.0 0.00 0.04 0.00 97 1020.5
20260831083051 64 169 0.0 1.0 0.00 0.04 0.00 97 1020.5
20260831081621 64 169 0.0 0.0 0.00 0.04 0.00 97 1020.6
20260831080051 63 169 0.0 0.0 0.00 0.04 0.00 97 1020.6
20260831074549 63 169 0.0 0.0 0.00 0.04 0.00 97 1020.4
20260831073120 63 169 0.0 1.0 0.00 0.04 0.00 97 1020.4
20260831071649 63 169 0.0 0.0 0.00 0.04 0.00 97 1020.6
20260831070046 63 169 0.0 0.0 0.00 0.04 0.00 97 1020.5
20260831064552 63 169 0.0 0.0 0.00 0.04 0.00 97 1020.7
20260831063042 63 169 0.0 0.0 0.00 0.04 0.00 97 1020.8
20260831061542 63 169 0.0 0.0 0.00 0.04 0.00 97 1020.8
20260831060058 63 169 0.0 0.0 0.00 0.04 0.00 97 1020.7
20260831054541 63 169 0.0 0.0 0.00 0.04 0.00 97 1021.0
20260831053040 63 169 0.0 2.0 0.00 0.04 0.00 97 1020.9
20260831051541 62 169 0.0 2.0 0.00 0.04 0.00 97 1020.9
20260831050044 62 169 0.0 2.0 0.00 0.04 0.00 97 1021.0
20260831044535 62 169 0.0 2.0 0.00 0.04 0.00 97 1021.0
20260831043036 62 169 0.0 1.0 0.00 0.04 0.00 97 1021.2
20260831041544 62 169 0.0 1.0 0.00 0.04 0.00 97 1021.3
20260831040045 62 169 0.0 1.0 0.00 0.04 0.00 97 1021.1
20260831034533 62 169 0.0 0.0 0.00 0.04 0.04 96 1021.2
20260831033029 62 169 0.0 0.0 0.00 0.04 0.04 96 1021.2
20260831031628 62 169 0.0 0.0 0.00 0.04 0.04 96 1021.1